This is the latest recevied weather packets stored in our database for station/object DL5TW-13. If no packets are shown the sender has not sent any weather packets the latest 10 day(s).
| Time | Temp. | Humidity | Pressure | Rain* | Wind** | Luminosity | Snow |
|---|---|---|---|---|---|---|---|
| 1777700126 | 10.56° C | 70% | 1018.1 hPa | 0 mm | - | - | - |
| 1777699826 | 10° C | 72% | 1018.2 hPa | 0 mm | - | - | - |
| 1777699526 | 9.44° C | 74% | 1018.2 hPa | 0 mm | - | - | - |
| 1777699226 | 8.89° C | 75% | 1018.2 hPa | 0 mm | - | - | - |
| 1777698925 | 7.78° C | 77% | 1018.3 hPa | 0 mm | - | - | - |
| 1777698625 | 7.78° C | 78% | 1018.4 hPa | 0 mm | - | - | - |
| 1777698325 | 7.22° C | 79% | 1018.3 hPa | 0 mm | - | - | - |
| 1777698024 | 6.67° C | 79% | 1018.1 hPa | 0 mm | - | - | - |
| 1777697724 | 6.67° C | 80% | 1018.4 hPa | 0 mm | - | - | - |
| 1777697424 | 6.11° C | 80% | 1018.2 hPa | 0 mm | - | - | - |
| 1777697124 | 5.56° C | 81% | 1018.2 hPa | 0 mm | - | - | - |
| 1777696823 | 5.56° C | 81% | 1018.3 hPa | 0 mm | - | - | - |
| 1777696523 | 5.56° C | 82% | 1018.4 hPa | 0 mm | - | - | - |
| 1777696223 | 5° C | 82% | 1018.3 hPa | 0 mm | - | - | - |
| 1777695922 | 4.44° C | 83% | 1018.4 hPa | 0 mm | - | - | - |
| 1777695622 | 4.44° C | 83% | 1018.3 hPa | 0 mm | - | - | - |
| 1777695322 | 3.89° C | 83% | 1018.4 hPa | 0 mm | - | - | - |
| 1777695021 | 3.33° C | 82% | 1018.4 hPa | 0 mm | - | - | - |
| 1777694721 | 3.33° C | 82% | 1018.4 hPa | 0 mm | - | - | - |
| 1777694421 | 3.33° C | 82% | 1018.3 hPa | 0 mm | - | - | - |
| 1777694121 | 3.33° C | 82% | 1018.4 hPa | 0 mm | - | - | - |
| 1777693820 | 3.33° C | 82% | 1018.4 hPa | 0 mm | - | - | - |
| 1777693520 | 3.33° C | 81% | 1018.3 hPa | 0 mm | - | - | - |
| 1777693220 | 3.33° C | 81% | 1018.6 hPa | 0 mm | - | - | - |
| 1777692920 | 3.33° C | 81% | 1018.6 hPa | 0 mm | - | - | - |
* Rain latest hour (hover to see other rain measurements)
** Current wind speed in m/s (hover to see current wind gust speed)